Location: Audinghen
(50.8518°N, 1.6129°E)
Time: 07:50:22
(UTC+00:00)

SL-16 R/B - Pass Details

Date: 07 August 2020
Orbit: 985 x 1007 km, 99.5° (Epoch: 26 September)

Event Time Altitude Azimuth Distance (km) Brightness Sun altitude
Exits shadow 02:13:42 25° 208° (SSW) 1,905 3.4 -16.7°
Maximum altitude 02:16:52 42° 262° (W) 1,398 3.0 -16.4°
Drops below altitude 10° 02:22:48 10° 333° (NNW) 2,792 5.2 -15.9°
Sets 02:25:28 0° 340° (NNW) 3,743 6.1 -15.6°
